Location: Hiram
(41.3130°N, 81.1440°W)
Time: 11:59:36
(UTC-04:00)

Iridium 62 - Visible Passes

Search period start: 29 June 2017 00:00
Search period end: 09 July 2017 00:00
Orbit: 776 x 779 km, 86.4° (Epoch: 28 June)

Date Brightness Start Highest point End Pass type
(mag) Time Alt. Az. Time Alt. Az. Time Alt. Az.
29 Jun 8.6 23:03:33 10° WSW 23:06:12 14° WNW 23:08:53 10° NW visible
30 Jun 8.0 22:28:05 10° SW 22:32:20 25° WNW 22:36:37 10° NNW visible
01 Jul 7.0 21:53:39 10° SSW 21:58:37 45° W 22:03:37 10° N visible
03 Jul 8.5 22:29:09 10° WSW 22:32:37 18° WNW 22:36:05 10° NNW visible
04 Jul 7.7 21:54:12 10° SW 21:58:48 31° W 22:03:27 10° NNW visible
06 Jul 8.8 22:30:53 10° W 22:32:56 12° WNW 22:35:00 10° NW visible
07 Jul 8.4 21:55:02 10° SW 21:59:02 22° WNW 22:03:05 10° NNW visible
